Cut Bank, MT

11:13 AM MDT on October 20, 2019 (GMT -0600)
Cut Bank Municipal

Weather History for KCTB - August, 2019

Change the Weather History Date:

Wednesday, August 7, 2019

  Actual Average Record
Temperature  
Mean Temperature 69 °F 66 °F  
Max Temperature 84 °F 82 °F 100 °F (1930)
Min Temperature 53 °F 50 °F 32 °F (1939)
Degree Days  
Heating Degree Days 0 2  
Month to date heating degree days 0 14  
Since 1 June heating degree days 315 333  
Since 1 July heating degree days 93 100  
Cooling Degree Days 4 3  
Month to date cooling degree days 35 21  
Year to date cooling degree days 88 110  
Since 1 June cooling degree days 88 108  
Growing Degree Days 19 (Base 50)    
Moisture  
Dew Point 49 °F    
Average Humidity 63    
Maximum Humidity 93    
Minimum Humidity 25    
Precipitation  
Precipitation 0.00 in 0.04 in 0.57 in (1994)
Month to date precipitation 0.01 0.26  
Year to date precipitation 7.42 7.73  
Snow  
Snow - - - ()
Snow Depth 0.00 in    
Sea Level Pressure  
Sea Level Pressure 29.99 in    
Wind  
Wind Speed 7 mph ()    
Max Wind Speed 16 mph    
Max Gust Speed 22 mph    
Visibility 9.9 miles    
Events      
T = Trace of Precipitation, MM = Missing Value Source: Averaged Metar Reports

Daily Weather History Graph

Daily Weather History Graph

Search for Another Location

Airport or City:

Astronomy

Aug. 07, 2019 Rise Set
Actual Time 6:11 AM MDT 8:58 PM MDT
Civil Twilight 5:35 AM MDT 9:33 PM MDT
Nautical Twilight 4:49 AM MDT 10:19 PM MDT
Astronomical Twilight 3:54 AM MDT 11:14 PM MDT
Moon 2:25 PM MDT (8/7) 12:12 AM MDT (8/7)
Length of Visible Light 15h 58m
Length of Day
14h 46m
Waxing Crescent, 50% of the Moon is Illuminated
Aug 7
Waxing Crescent
Aug 15
Full
Aug 23
Last Quarter
Aug 30
New
Sep 5
First Quarter

Hourly Weather History & Observations

Time (MDT) Temp. Dew Point Humidity Pressure Visibility Wind Dir Wind Speed Gust Speed Precip Events Conditions
12:47 AM 55.9 °F 51.1 °F 84% 30.14 in 10.0 mi NNW 8.1 mph - N/A   Mostly Cloudy
12:56 AM 55.9 °F 51.1 °F 84% 30.07 in 10.0 mi NNW 8.1 mph - N/A   Scattered Clouds
1:46 AM 55.9 °F 52.0 °F 87% 30.14 in 10.0 mi North 12.7 mph - N/A   Scattered Clouds
1:56 AM 55.9 °F 52.0 °F 87% 30.06 in 10.0 mi North 11.5 mph - N/A   Mostly Cloudy
2:56 AM 54.0 °F 51.1 °F 90% 30.05 in 10.0 mi North 11.5 mph - N/A   Overcast
3:56 AM 55.0 °F 51.1 °F 86% 30.04 in 10.0 mi North 5.8 mph - N/A   Overcast
4:56 AM 55.0 °F 51.1 °F 86% 30.03 in 10.0 mi North 4.6 mph - N/A   Overcast
5:56 AM 55.0 °F 51.1 °F 86% 30.02 in 10.0 mi Calm Calm - N/A   Overcast
6:56 AM 53.1 °F 50.0 °F 89% 30.01 in 9.0 mi SSE 4.6 mph - N/A   Overcast
7:29 AM 54.0 °F 51.1 °F 90% 30.10 in 8.0 mi ESE 5.8 mph - N/A   Overcast
7:56 AM 54.0 °F 50.0 °F 86% 30.02 in 10.0 mi ESE 5.8 mph - N/A   Overcast
8:10 AM 54.0 °F 50.0 °F 86% 30.09 in 9.0 mi East 4.6 mph - N/A   Overcast
8:56 AM 54.0 °F 50.0 °F 86% 30.02 in 10.0 mi ESE 4.6 mph - N/A   Overcast
9:56 AM 59.0 °F 51.1 °F 75% 30.02 in 10.0 mi Variable 6.9 mph - N/A   Overcast
10:03 AM 57.9 °F 51.1 °F 78% 30.07 in 10.0 mi Variable 3.5 mph - N/A   Overcast
10:36 AM 61.0 °F 51.1 °F 70% 30.07 in 10.0 mi Variable 4.6 mph - N/A   Mostly Cloudy
10:51 AM 62.6 °F 51.8 °F 68% 30.07 in 10.0 mi SE 8.1 mph - N/A   Scattered Clouds
10:56 AM 63.0 °F 51.1 °F 65% 30.01 in 10.0 mi ESE 8.1 mph - N/A   Scattered Clouds
11:56 AM 68.0 °F 51.1 °F 55% 29.99 in 10.0 mi SSE 9.2 mph - N/A   Clear
12:56 PM 73.0 °F 51.1 °F 46% 29.96 in 10.0 mi SSE 10.4 mph - N/A   Clear
1:56 PM 77.0 °F 50.0 °F 39% 29.94 in 10.0 mi Variable 5.8 mph - N/A   Clear
2:56 PM 80.1 °F 48.0 °F 32% 29.91 in 10.0 mi SSE 10.4 mph - N/A   Clear
3:56 PM 82.0 °F 44.1 °F 26% 29.88 in 10.0 mi Variable 6.9 mph - N/A   Clear
4:56 PM 84.0 °F 45.0 °F 25% 29.86 in 10.0 mi SSE 13.8 mph 17.3 mph N/A   Clear
5:56 PM 84.0 °F 45.0 °F 25% 29.84 in 10.0 mi SE 9.2 mph - N/A   Clear
6:56 PM 82.9 °F 44.1 °F 25% 29.84 in 10.0 mi SE 11.5 mph - N/A   Clear
7:56 PM 81.0 °F 44.1 °F 27% 29.83 in 10.0 mi SE 10.4 mph - N/A   Clear
8:56 PM 75.0 °F 44.1 °F 33% 29.85 in 10.0 mi ESE 8.1 mph - N/A   Clear
9:56 PM 72.0 °F 44.1 °F 37% 29.86 in 10.0 mi SE 9.2 mph - N/A   Clear
10:56 PM 70.0 °F 48.9 °F 47% 29.87 in 10.0 mi ESE 15.0 mph - N/A   Clear
11:56 PM 66.9 °F 51.1 °F 57% 29.88 in 10.0 mi ESE 10.4 mph - N/A   Clear